Terminal Aerodrome Forecast
Issued by NWS

Home | Current Version | Previous Version | Text Only | Print | Product List | Glossary On
Versions: 1 2 3 4 5 6 7 8 9 10 11 12 13
000
FTUS45 KREV 212300
TAFMMH
TAF
KMMH 212338Z 2200/2224 34010KT P6SM BKN180
     FM221000 VRB04KT P6SM SCT050 SCT180
      AMD NOT SKED 2202/2214=

USA.gov is the U.S. government's official web portal to all federal, state and local government web resources and services.